Regional Weather Roundup
Issued by NWS

Home | Current Version | Previous Version | Text Only | Print | Product List | Glossary On
Versions: 1 2 3 4 5 6 7 8 9 10 11 12 13 14 15 16 17 18 19 20 21 22 23 24 25 26 27 28 29 30 31 32 33 34 35 36 37 38 39 40 41 42 43 44 45 46 47 48 49 50
000
ASUS43 KLSX 210707
RWRMO

WEATHER SUMMARY FOR MISSOURI
NATIONAL WEATHER SERVICE SPRINGFIELD MO
200 AM CDT TUE APR 21 2015

NOTE: "FAIR" INDICATES FEW OR NO CLOUDS BELOW 12,000 FEET WITH NO
       SIGNIFICANT WEATHER AND/OR OBSTRUCTIONS TO VISIBILITY.
       CURRENT SKY AND/OR WEATHER CONDITIONS ARE NOT AVAILABLE FOR
       CHILLICOTHE AND FARMINGTON.

MOZ001>031-035>038-043-044-053-054-210800-
...NORTHERN AND WESTERN MISSOURI...

CITY           SKY/WX    TMP DP  RH WIND       PRES   REMARKS
KANSAS CTY INT CLEAR     43  30  60 W9        29.85S
KANSAS C DTWN  CLEAR     50  30  46 SW9       29.85S
LEE`S SUMMIT   CLEAR     44  31  60 SW7       29.86S
ST JOSEPH      MOCLDY    45  29  53 W12       29.84S
CHILLICOTHE      N/A     47  30  51 CALM      29.83S
KIRKSVILLE     CLEAR     44  27  51 SW8       29.78S

$$
MOZ066>068-077>081-088>096-101>105-210800-
...SOUTHWEST MISSOURI...

CITY           SKY/WX    TMP DP  RH WIND       PRES   REMARKS
SPRINGFIELD    CLEAR     44  33  65 SW9       29.92S
JOPLIN         PTCLDY    43  36  76 S7        29.94S

$$
MOZ032>034-039>042-045>050-055>058-069>072-210800-
...CENTRAL MISSOURI...

CITY           SKY/WX    TMP DP  RH WIND       PRES   REMARKS
COLUMBIA       MOCLDY    47  30  51 SW12      29.84S
JEFFERSON CITY MOCLDY    47  28  47 CALM      29.85F
ROLLA          CLEAR     41  27  57 SW12      29.85F
SEDALIA        PTCLDY    47  32  56 SW9       29.86F
WHITEMAN AFB   PTCLDY    47  31  54 W8        29.85S
WARRENSBURG    CLEAR     43  32  65 SW8       29.86S
OSAGE BEACH    CLEAR     46  27  46 SW7       29.88S

$$
MOZ051-052-059>065-210800-
...EAST CENTRAL MISSOURI...

CITY           SKY/WX    TMP DP  RH WIND       PRES   REMARKS
ST LOUIS INTL  CLEAR     47  29  49 SW9       29.82F
SPIRIT OF STL  CLEAR     46  29  51 SW8       29.83S
ST CHARLES     CLEAR     46  31  55 VRB3      29.81S

$$
MOZ072>076-082>087-097>100-106>115-210800-
...SOUTH CENTRAL AND SOUTHEAST MISSOURI...

CITY           SKY/WX    TMP DP  RH WIND       PRES   REMARKS
CAPE GIRARDEAU CLEAR     45  38  76 SW6       29.90F
FARMINGTON     CLEAR     43  28  56 W3        29.91S
POPLAR BLUFF   CLEAR     47  33  58 W5        29.92S
WEST PLAINS    CLEAR     43  29  57 SW6       29.94S

$$



USA.gov is the U.S. government's official web portal to all federal, state and local government web resources and services.